Weather History for CWQK - May, 2013

Change the Weather History Date:

Monday, May 27, 2013

  Actual Average Record
Temperature  
Mean Temperature 50 °F -  
Max Temperature 54 °F - - ()
Min Temperature 47 °F - - ()
Degree Days  
Heating Degree Days 14    
Moisture  
Dew Point 49 °F    
Average Humidity 93    
Maximum Humidity 97    
Minimum Humidity 86    
Precipitation  
Precipitation 0.00 in - - ()
Sea Level Pressure  
Sea Level Pressure 29.65 in    
Wind  
Wind Speed 10 mph ()    
Max Wind Speed 24 mph    
Max Gust Speed -    
T = Trace of Precipitation, MM = Missing Value Source: Averaged Metar Reports

Daily Weather History Graph

Daily Weather History Graph

Search for Another Location

Airport or City:

Trip Planner

Search our weather history database for the weather conditions in past years. The results will help you decide how hot, cold, wet, or windy it might be!

Date:

Astronomy

May. 27, 2013 Rise Set
Actual Time 5:21 AM PDT 9:02 PM PDT
Civil Twilight 4:41 AM PDT 9:41 PM PDT
Nautical Twilight 3:48 AM PDT 10:35 PM PDT
Astronomical Twilight 2:32 AM PDT 11:52 PM PDT
Moon 11:39 PM PDT (5/27) 8:08 AM PDT (5/27)
Length of Visible Light 17h 00m
Length of Day
15h 41m
Waning Gibbous, 90% of the Moon is Illuminated
May 27
Waning Gibbous
May 31
Last Quarter
Jun 8
New
Jun 16
First Quarter
Jun 23
Full

Hourly Weather History & Observations

Time (PDT) Temp. Dew Point Humidity Pressure Visibility Wind Dir Wind Speed Gust Speed Precip Events Conditions
12:00 AM 52.2 °F 49.6 °F 91% 29.84 in - West 9.2 mph - N/A   Unknown
1:00 AM 51.1 °F 48.9 °F 92% 29.83 in - WSW 2.3 mph - N/A   Unknown
2:00 AM 49.1 °F 48.0 °F 96% 29.82 in - WSW 5.8 mph - N/A   Unknown
3:00 AM 49.5 °F 48.6 °F 97% 29.80 in - West 2.3 mph - N/A   Unknown
4:00 AM 47.7 °F 46.8 °F 97% 29.77 in - ESE 5.8 mph - N/A   Unknown
5:00 AM 48 °F 47 °F 96% 29.75 in - NE 5.8 mph - -  
5:00 AM 48.0 °F 47.3 °F 97% 29.75 in - NE 5.8 mph - N/A   Unknown
6:00 AM 48.6 °F 47.8 °F 97% 29.71 in - NNE 10.4 mph - N/A   Unknown
7:00 AM 50.0 °F 48.7 °F 95% 29.68 in - North 15.0 mph - N/A   Unknown
8:00 AM 49.5 °F 47.5 °F 93% 29.66 in - NNE 12.7 mph - N/A   Unknown
9:00 AM 48.4 °F 47.3 °F 96% 29.64 in - NNE 12.7 mph - N/A   Unknown
10:00 AM 50.5 °F 48.6 °F 93% 29.60 in - East 21.9 mph - N/A   Unknown
11:00 AM 50 °F 48 °F 91% 29.60 in - NE 17.3 mph - -  
11:00 AM 50.4 °F 48.2 °F 92% 29.60 in - NE 17.3 mph - N/A   Unknown
12:00 PM 51.1 °F 48.6 °F 91% 29.57 in - NE 24.2 mph - N/A   Unknown
1:00 PM 52.2 °F 49.3 °F 90% 29.56 in - ENE 24.2 mph - N/A   Unknown
2:00 PM 52.0 °F 48.9 °F 89% 29.56 in - NNE 19.6 mph - N/A   Unknown
3:00 PM 52.5 °F 49.3 °F 89% 29.56 in - East 16.1 mph - N/A   Unknown
4:00 PM 50.9 °F 48.7 °F 92% 29.57 in - North 13.8 mph - N/A   Unknown
5:00 PM 54 °F 51 °F 86% 29.57 in - North 21.9 mph - -  
5:00 PM 54.0 °F 50.9 °F 89% 29.57 in - North 21.9 mph - N/A   Unknown
6:00 PM 52.7 °F 49.3 °F 88% 29.58 in - North 12.7 mph - N/A   Unknown
7:00 PM 52.2 °F 49.6 °F 91% 29.59 in - West 15.0 mph - N/A   Unknown
8:00 PM 52.2 °F 50.4 °F 94% 29.60 in - West 13.8 mph - N/A   Unknown
9:00 PM 52.5 °F 51.4 °F 96% 29.60 in - West 10.4 mph - N/A   Unknown
10:00 PM 52.2 °F 50.0 °F 92% 29.62 in - West 6.9 mph - N/A   Unknown
11:00 PM 50 °F 48 °F 89% 29.63 in - WSW 8.1 mph - -  
11:00 PM 50.4 °F 47.8 °F 91% 29.63 in - WSW 8.1 mph - N/A   Unknown